Regional Weather Roundup
Issued by NWS Upton, NY

Current Version | Previous Version | Text Only | Print | Product List | Glossary On
Versions: 1 2 3 4 5 6 7 8 9 10 11 12 13 14 15 16 17 18 19 20 21 22 23 24 25 26 27 28 29 30 31 32 33 34 35 36 37 38 39 40 41 42 43 44 45 46 47 48 49 50
000
ASUS41 KOKX 262205
RWROKX

REGIONAL WEATHER ROUNDUP
NATIONAL WEATHER SERVICE NEW YORK NY
500 PM EST MON JAN 26 2015

NOTE: "FAIR" INDICATES FEW OR NO CLOUDS BELOW 12,000 FEET WITH NO
SIGNIFICANT WEATHER AND/OR OBSTRUCTIONS TO VISIBILITY.

NYZ071-072-176-178-NJZ106-104-262300-
NEW YORK CITY METRO AREA


CITY           SKY/WX    TMP DP  RH WIND       PRES   REMARKS
CENTRAL PARK   SNOW      25  21  85 NE15G24   29.85F VSB 1/4 WCI  13
LAGUARDIA APRT SNOW      26  24  92 NE25G36   29.84F VSB 1/4 WCI  11
KENNEDY INTL   LGT SNOW  26  21  81 NE23G30   29.83S WCI  11
NEWARK/LIBERTY LGT SNOW  23  21  92 N18       29.84F VSB 3/4 WCI   9
BRNX BOT. GARD   N/A    N/A N/A N/A NE3       29.87R
TETERBORO      LGTSLEET  25  19  80 N10       29.85F FOG     WCI  15
$$

NYZ177-179-078>081-262300-
LONG ISLAND NEW YORK

CITY           SKY/WX    TMP DP  RH WIND       PRES   REMARKS
FARMINGDALE    LGT SNOW  27  23  85 NE20G30   29.82F VSB 3/4 WCI  13
ISLIP          LGT SNOW  27  24  89 NE21      29.82S VSB 3/4 WCI  13
SHIRLEY        LGT SNOW  28  24  85 NE12G22   29.85S FOG     WCI  18
WESTHAMPTON    LGT SNOW  30  26  85 NE24G32   29.85S VSB 1   WCI  16
MONTAUK POINT    N/A     32  29  88 NE16G30   29.89R WCI  21
$$

NYZ052-065-067-262300-
HUDSON VALLEY

CITY           SKY/WX    TMP DP  RH WIND       PRES   REMARKS
WHITE PLAINS   LGT SNOW  23  19  85 NE13G23   29.83F VSB 1   WCI  11
NEWBURGH       LGT SNOW  19  16  86 NE9       29.91F FOG     WCI   9
MONTGOMERY     LGT SNOW  19  14  81 NE17      29.90R WCI   4
POUGHKEEPSIE   CLOUDY    19  12  74 N10       29.94F WCI   7
ALBANY         LGT SNOW  17   5  59 N8        30.02S WCI   7
$$

NJZ001-105-106-008-010-013-015-019>022-104-262300-
NEW JERSEY

CITY           SKY/WX    TMP DP  RH WIND       PRES   REMARKS
NEWARK/LIBERTY LGT SNOW  23  21  92 N18       29.84F VSB 3/4 WCI   9
TETERBORO      LGTSLEET  25  19  80 N10       29.85F FOG     WCI  15
CALDWELL       LGT SNOW  23  18  81 NE10G20   29.85F WCI  12
MORRISTOWN     LGT SNOW  23  19  86 NE8G16    29.85S VSB 1   WCI  14
SOMERVILLE     LGT SNOW  24  18  77 N7G20     29.82R WCI  16
SUSSEX         LGT SNOW  18  13  80 NE10      29.86F WCI   6
ANDOVER          N/A     17  13  84 VRB5      29.85S WCI  10
TRENTON        LGT SNOW  23  18  81 NE13G21   29.78S WCI  11
MILLVILLE      CLOUDY    30  26  85 NE20G30   29.70R WCI  17
ATLANTIC CITY  CLOUDY    32  30  92 NE20      29.67F FOG     WCI  20
WRIGHTSTOWN    LGT SNOW  26  24  90 NE15G25   29.75F BLWGSNOWWCI  14
TOMS RIVER     CLOUDY    28  28 100 N13       29.75F VSB 1   WCI  18
BELMAR         CLOUDY    28  21  74 NE16      29.76  WCI  17
$$

PAZ047>061-062-071-262300-
EASTERN PENNSYLVANIA

CITY           SKY/WX    TMP DP  RH WIND       PRES   REMARKS
PHILADELPHIA   CLOUDY    27  20  75 NE22G29   29.78R WCI  13
ALLENTOWN      LGT SNOW  21  14  74 NE16      29.82S WCI   7
SCRANTON       LGT SNOW  22  15  75 NE8       29.80F WCI  12
$$

CTZ002-004>006-009-010-012-RIZ004-006-007-MAZ004-011-015-262300-
SOUTHERN NEW ENGLAND
 IN CT

CITY           SKY/WX    TMP DP  RH WIND       PRES   REMARKS
BRADLEY INTL   LGT SNOW  21  15  78 N15       29.98S WCI   8
HARTFORD       LGT SNOW  22  18  85 N14G21    29.98S VSB 3/4 WCI   9
DANBURY        LGT SNOW  21  15  78 NE12      29.91S VSB 1   WCI   9
WTRBRY/OXFORD  LGT SNOW  19   9  63 NE13G24   29.88S VSB 1   WCI   7
BRIDGEPORT     LGT SNOW  24  20  84 NE21G31   29.90R VSB 1   WCI   9
MERIDEN        LGT SNOW  22  17  81 N9        29.95R VSB 3/4 WCI  12
NEW HAVEN      LGT SNOW  23  19  85 N20G25    29.91S VSB 1   WCI   8
CHESTER        LGT SNOW  23  21  93 NE9G21    29.91R VSB 3/4 WCI  13
GROTON         LGT SNOW  26  23  88 NE16      29.91R FOG     WCI  14
WILLIMANTIC    LGT SNOW  23  18  81 NE10      29.96R WCI  12

 IN RI

CITY           SKY/WX    TMP DP  RH WIND       PRES   REMARKS
PROVIDENCE     LGT SNOW  28  25  88 NE14      29.97S FOG     WCI  17
BLOCK ISLAND   CLOUDY    32  27  80 NE22G35   29.88S VSB 1   WCI  19
WESTERLY       LGT SNOW  27  24  89 NE12G20   29.92S FOG     WCI  17

 IN MA

CITY           SKY/WX    TMP DP  RH WIND       PRES   REMARKS
BOSTON         LGT SNOW  28  22  78 NE20G29   30.04S WCI  15
WORCESTER      LGT SNOW  17  14  88 NE13G24   29.94F FOG     WCI   4
WESTFIELD      LGT SNOW  20  11  68 N10       29.99F WCI   9
PROVINCETOWN   CLOUDY    32  21  64 NE22G33   30.00F WCI  19
NANTUCKET      LGT SNOW  33  30  88 NE21G32   29.90F VSB 1   WCI  21
$$

ANZ330-335-338-340-345-350-353-355-262300-
COASTAL MARINE OBSERVATIONS


STATION/POSITION TIME  SKY/WX   TEMP    WIND        PRES    VSBY  WAVE
                                AIR SEA DIR/SP/G                  HT/PER
                 (UTC)          (F)     (DEG/KT/KT) (MB)    (MI)  (FT/S)
NY HARB ENTRANCE 2200            32 43   40/ 29/ 35 1006.9          9/ 8
4S FIRE IS       2200               38                N/A           9/ 8
20S FIRE ISLAND  2100               41              1007.4         13/ 8
23SW MTP         2200                                 N/A          11/ 8
HUDSON CANYON    NOT AVBL
EXECUTION ROCKS  2200            27 35   40/ 25/ 31   N/A
WESTERN LI SOUND 2200            27      60/ 21/ 27   N/A           4/ 5
CENTRAL LI SOUND 2100            27 36   50/ 23/ 29   N/A           4/ 4
EASTERN LI SOUND NOT AVBL
ROBBINS REEF     2200            26      30/ 23/ 27 1008.7
$$


>>>>>>>>>>>>>>>>>>>>>>>>>>>> KEY <<<<<<<<<<<<<<<<<<<<<<<<<<<
>                                                          <
>     SKY/WX - SKY CONDITION/PRESENT WEATHER               <
>     TMP    - TEMPERATURE IN FAHRENHEIT                   <
>     DP     - DEWPOINT IN FAHRENHEIT                      <
>     RH     - RELATIVE HUMIDITY IN PERCENT                <
>     WIND   - DIRECTION AND SPEED IN MPH                  <
>     PRES   - MEAN SEA LEVEL PRESSURE IN INCHES OF HG     <
>     WCI    - WIND CHILL INDEX                            <
>     VSB    - VISIBILITY IN MILES                         <
>     HX     - HEAT INDEX                                  <
>     TC     - TEMPERATURE IN CELSIUS                      <
>     VRB    - VARIABLE WIND DIRECTION                     <
>                                                          <
>>>>>>>>>>>>>>>>>>>>>>>>>>>> KEY <<<<<<<<<<<<<<<<<<<<<<<<<<<




USA.gov is the U.S. government's official web portal to all federal, state and local government web resources and services.